Theta_e
300 300 299 299 299 299 299 300 300 300 300 301 303 305 309 309 311 319 319 319 321 322 324 325 327 325 325 325 326 325 325 325 324 324 324 324 323 322 322 322 322 323 323
299 299 298 298 298 298 298 298 298 299 299 299 299 300 302 307 309 310 319 321 322 320 321 323 324 323 326 324 325 325 323 325 324 324 323 324 324 324 323 323 322 322 323
298 298 298 298 298 298 298 298 298 298 298 298 298 299 299 301 304 308 308 315 317 319 321 322 321 322 324 323 324 324 324 324 323 324 323 323 323 323 322 323 321 323 322
297 296 297 297 297 297 297 297 297 298 298 298 298 298 298 299 300 303 307 308 307 312 316 319 320 321 323 321 323 323 324 324 323 323 323 322 322 322 321 321 320 322 321
295 294 294 294 294 294 294 295 295 295 296 296 297 298 297 297 298 299 302 305 308 308 307 308 313 317 320 320 322 322 321 321 323 322 322 322 321 322 321 321 320 320 318
292 292 292 292 292 293 293 293 294 294 295 295 296 296 297 297 297 297 299 302 304 306 307 308 307 308 314 316 319 320 320 318 321 320 320 320 320 319 320 320 319 317 317
290 290 290 291 291 291 291 292 292 293 293 293 294 295 296 296 296 296 296 298 299 302 303 305 307 307 307 311 315 315 315 316 317 317 317 318 318 319 317 319 317 317 317
288 288 289 289 289 289 289 290 290 290 291 292 293 293 294 294 294 294 294 295 296 298 299 301 302 304 305 306 307 308 312 313 314 314 314 315 316 316 317 316 317 315 315
285 286 286 286 286 287 287 288 288 289 289 290 291 291 292 293 292 291 292 294 295 297 297 298 299 299 300 301 302 304 308 309 310 310 311 312 314 315 316 317 317 313 314
285 285 285 285 286 286 286 287 287 287 287 287 288 288 287 288 290 291 292 293 295 296 297 298 298 298 299 300 302 303 305 306 307 308 308 311 312 311 312 313 313 314 314
283 283 284 284 284 284 283 284 284 284 284 283 284 285 286 287 288 290 291 293 293 295 296 297 297 298 299 300 301 302 304 305 306 307 308 308 309 310 311 311 312 312 312
282 283 283 283 283 283 283 283 283 283 282 282 282 284 284 285 286 288 290 291 292 292 294 296 297 298 299 300 301 302 303 303 304 305 305 305 305 307 308 308 308 308 307
282 282 282 282 282 282 283 283 282 282 281 281 281 281 282 283 284 286 288 289 290 291 293 294 295 296 298 299 300 300 301 302 303 302 303 303 304 304 304 304 304 304 304
281 281 282 282 283 282 282 281 281 280 278 277 277 278 278 279 281 282 284 287 288 289 290 291 292 293 294 294 295 295 295 296 296 296 298 300 300 299 300 300 300 299 298
280 280 281 281 281 281 280 279 279 278 275 275 274 275 275 275 275 277 281 285 286 287 288 289 289 289 289 289 290 290 291 291 292 292 292 293 293 294 293 293 294 294 294
280 280 280 280 280 279 279 279 278 278 278 277 274 275 275 274 276 279 281 283 285 285 287 284 283 283 284 285 285 286 287 288 288 289 290 290 290 289 289 289 290 290 291
278 278 278 278 278 278 278 278 278 278 277 277 278 277 277 276 278 279 279 279 281 283 280 278 279 279 280 281 282 283 283 284 285 285 286 286 287 287 287 287 287 287 287
277 277 277 276 276 276 276 276 276 276 276 277 277 277 276 276 276 277 278 280 281 279 277 276 276 276 277 278 279 280 281 282 283 283 283 284 284 284 284 284 284 284 284
276 276 275 275 275 275 275 275 275 275 274 275 275 276 275 275 275 276 276 275 274 274 274 274 274 275 275 276 277 277 278 278 279 280 280 281 281 282 282 282 282 283 283
274 274 273 273 272 272 271 271 271 271 270 271 270 270 270 270 273 274 273 273 272 272 271 272 272 273 273 274 275 276 276 277 278 278 278 278 278 279 280 280 280 281 281
273 273 272 271 270 270 270 270 269 269 269 269 269 268 267 268 268 268 268 268 267 268 269 269 270 271 271 272 273 273 274 274 275 275 275 276 276 277 277 277 278 278 279
273 271 270 270 270 269 269 269 269 269 268 268 268 268 267 268 267 267 267 267 266 266 266 266 267 267 267 268 270 271 272 272 273 273 273 273 274 274 274 275 275 276 276
271 270 269 269 269 269 269 269 268 268 268 268 267 267 267 267 266 266 266 266 266 266 266 266 266 266 266 266 266 267 267 267 268 268 270 271 271 272 272 273 273 273 273
270 269 269 269 269 269 269 268 268 268 267 267 267 267 266 266 266 265 265 265 265 265 265 265 265 265 265 265 266 266 265 265 266 266 266 267 267 267 268 268 270 270 271
269 269 269 268 268 268 268 268 268 267 267 267 267 266 266 266 265 265 265 265 265 265 265 265 264 265 265 265 265 265 265 265 264 264 265 266 266 266 266 266 266 266 267
268 268 268 268 267 267 267 267 267 267 266 266 266 265 265 265 265 264 264 264 264 265 264 264 264 264 264 264 264 265 265 265 265 265 265 265 265 265 265 265 265 265 265
Wind_Speed
16 17 19 20 22 21 21 22 23 24 26 27 27 27 27 28 25 24 28 31 34 36 37 40 43 39 40 45 46 45 47 49 52 49 47 42 41 39 37 36 36 35 34
17 18 19 21 23 26 27 26 28 29 29 30 30 29 28 28 27 27 26 24 29 35 35 37 40 39 46 43 44 48 49 48 52 50 44 45 39 36 35 35 35 35 37
18 19 21 24 27 28 30 31 32 33 34 34 33 32 32 31 30 29 30 32 33 33 33 33 37 38 41 38 43 42 46 47 47 50 45 39 43 36 37 39 34 37 38
23 24 25 26 27 28 28 29 29 31 33 35 35 36 34 33 32 31 31 34 37 38 39 36 35 32 38 38 41 45 41 45 47 49 45 42 41 40 34 36 40 36 36
26 27 28 27 27 28 29 30 31 32 32 34 35 36 37 36 34 34 34 34 36 39 41 41 42 40 37 32 36 39 36 38 45 42 37 37 35 37 39 38 36 33 30
27 28 30 31 31 33 33 33 33 34 34 35 36 37 39 39 38 37 37 37 36 37 40 42 43 41 41 42 39 39 31 36 37 32 32 37 35 34 39 34 29 26 33
28 29 31 33 34 36 37 38 38 39 38 38 38 39 40 40 42 41 35 36 38 38 38 39 41 42 41 40 41 42 42 41 38 37 39 41 40 36 34 37 34 32 35
26 28 30 33 35 37 38 39 40 41 41 41 42 40 41 42 42 40 37 36 39 39 37 37 38 39 39 40 43 43 42 41 40 40 40 39 35 35 31 27 27 31 29
28 31 34 36 37 37 37 38 39 41 41 41 40 40 41 43 41 38 36 38 40 41 39 36 35 36 34 32 34 37 36 34 30 36 37 37 37 29 25 25 27 28 31
28 30 31 32 35 37 39 41 40 39 39 39 40 39 38 41 41 38 34 38 42 42 41 39 34 33 31 30 31 31 34 33 28 31 31 33 29 29 29 25 25 32 35
25 27 29 31 34 36 36 36 35 35 36 39 38 39 39 40 41 37 34 36 38 41 42 41 36 31 30 29 28 31 30 27 25 27 29 29 29 27 21 22 26 29 31
23 25 28 32 34 34 35 34 31 32 36 40 43 44 42 41 41 40 35 32 34 36 38 37 35 32 30 28 26 27 27 29 25 25 25 25 24 23 21 24 27 27 27
23 26 28 28 29 30 31 32 33 33 35 39 43 44 46 45 41 40 37 36 33 32 31 30 30 29 28 27 23 22 23 24 23 25 26 27 27 26 25 24 25 25 25
23 24 25 27 28 29 30 30 30 31 31 34 39 39 41 42 39 36 39 36 34 30 25 21 19 17 18 17 18 18 17 17 18 20 24 25 26 25 24 23 23 24 23
20 23 25 27 29 28 27 29 28 23 21 25 31 29 32 37 39 30 32 33 31 24 18 11 7 5 7 8 7 8 8 10 10 11 15 17 18 19 19 18 18 20 22
21 23 25 26 26 27 28 26 22 23 22 20 22 25 25 28 32 29 27 28 25 17 12 15 18 17 16 16 15 13 9 8 6 3 3 6 9 10 12 13 14 15 13
20 20 21 22 24 26 27 29 31 23 22 23 22 24 25 26 27 26 24 23 20 18 26 27 26 25 23 20 19 18 18 15 10 10 9 7 6 6 6 6 6 7 9
16 18 19 20 21 22 23 24 25 28 30 29 27 25 25 28 28 27 25 22 25 28 29 29 28 27 25 23 20 19 16 14 12 12 11 9 8 6 3 3 4 6 8
17 18 19 19 20 21 21 22 23 24 25 26 27 25 26 27 26 26 28 30 30 29 28 27 26 25 23 22 20 19 17 16 15 13 12 11 10 8 7 7 7 7 9
17 19 21 22 22 21 21 21 21 22 24 25 27 29 30 29 29 30 29 29 27 27 27 26 25 24 23 21 20 18 16 15 13 13 12 10 9 8 6 5 4 5 6
18 19 20 20 21 21 21 21 21 22 22 23 24 25 24 27 28 27 28 28 27 27 26 25 24 23 22 21 19 19 18 16 15 14 13 11 9 8 7 5 3 2 2
17 18 19 19 19 20 20 21 21 21 22 23 23 23 24 24 25 25 25 25 25 25 25 24 24 23 23 22 21 19 18 17 16 14 13 12 11 10 9 8 7 7 7
17 18 17 18 18 19 19 20 21 22 22 23 24 24 25 25 25 25 25 24 24 24 24 24 23 22 22 21 20 20 19 18 17 17 16 15 14 13 13 12 11 10 9
17 18 18 18 18 19 20 21 21 22 23 23 24 24 25 26 26 26 26 25 24 23 23 23 23 23 22 21 20 19 19 18 17 16 16 16 15 14 14 14 14 14 13
17 17 18 18 18 19 19 20 21 22 23 24 25 25 26 26 26 26 26 26 26 25 24 24 23 23 22 22 21 20 19 17 17 17 17 16 15 15 15 14 15 14 14
16 17 18 18 18 19 20 20 21 22 23 24 25 26 27 28 28 28 27 27 26 26 25 25 24 24 23 22 21 21 20 19 18 18 19 17 16 15 15 14 14 14 14
Wind_Direction
12 6 359 353 349 346 342 338 334 333 330 326 322 320 315 307 299 290 285 283 282 283 281 275 274 280 280 272 266 271 264 262 261 266 270 275 274 275 277 274 270 269 266
355 350 345 342 339 337 335 333 330 327 327 325 324 322 318 314 304 292 286 285 290 286 284 284 281 280 272 275 274 266 261 264 260 263 267 270 274 276 274 275 271 270 267
345 340 336 335 332 331 330 328 327 324 322 321 321 320 319 317 313 306 291 279 275 275 282 286 284 282 278 279 274 277 271 267 253 261 268 264 269 280 279 273 278 272 270
340 339 335 331 329 327 326 324 323 320 318 318 317 317 317 315 313 309 301 291 284 277 275 275 275 285 285 280 276 277 274 273 267 265 265 265 266 267 265 262 277 272 259
337 339 338 338 337 334 333 333 330 326 324 321 319 318 317 315 313 309 304 298 293 287 282 278 273 270 269 279 276 272 273 271 267 254 261 265 263 265 277 277 272 270 250
341 342 342 341 341 341 340 337 335 331 328 324 322 319 316 314 313 309 304 301 296 292 288 284 280 277 267 264 268 270 275 277 280 281 274 269 268 269 280 270 265 265 247
346 348 346 344 345 344 342 342 340 335 332 329 326 323 319 316 315 313 308 302 298 294 292 290 285 280 276 268 264 263 266 268 269 271 277 276 271 277 278 274 276 262 256
351 352 349 349 349 347 346 345 341 337 335 332 329 326 320 318 317 317 316 307 300 296 295 294 292 287 280 277 272 269 266 265 264 265 270 273 276 267 268 269 271 259 244
358 359 357 355 352 350 349 347 346 340 338 334 332 329 324 320 322 323 321 310 303 299 298 297 295 292 290 289 284 271 270 268 271 268 266 266 266 265 258 255 252 238 234
3 3 359 357 355 354 354 350 347 345 343 344 341 340 336 330 329 327 320 308 302 300 297 295 294 294 291 282 278 278 269 269 272 270 272 265 256 261 259 248 256 244 238
7 5 3 4 3 1 358 357 355 350 343 343 339 335 334 334 330 327 319 306 301 299 292 292 294 294 286 280 275 271 273 273 267 267 267 262 258 247 241 252 241 239 240
6 6 9 11 8 3 359 356 353 347 341 340 339 340 342 343 340 336 325 310 303 299 293 290 292 289 286 281 279 275 270 269 266 265 264 258 249 240 239 249 238 234 230
7 8 10 12 11 7 1 357 355 352 346 343 341 341 339 340 341 337 333 326 312 302 295 291 291 293 288 282 277 277 272 269 268 264 259 255 248 240 234 227 229 231 233
6 5 5 4 6 8 7 4 3 359 353 348 345 345 341 341 341 340 335 333 327 322 314 310 306 301 298 294 288 282 274 269 269 268 261 252 242 232 225 227 226 224 221
2 2 3 4 4 5 11 8 6 6 358 355 355 353 353 356 352 347 335 335 333 325 315 313 323 357 9 1 337 320 307 296 281 274 272 258 235 222 214 210 210 204 204
359 360 0 0 0 1 359 3 13 7 1 352 3 2 2 1 0 359 353 345 341 340 339 41 46 51 54 53 49 48 46 40 21 339 270 236 214 201 195 190 193 195 196
356 358 359 360 360 358 358 355 353 4 9 5 1 2 4 2 2 6 10 15 21 26 45 46 48 47 48 51 51 50 55 61 64 78 95 107 135 164 180 180 195 211 197
355 355 357 358 356 356 356 355 353 353 356 359 5 6 8 5 3 5 9 9 23 34 37 37 39 38 38 42 45 46 47 54 66 73 82 91 97 94 113 136 154 166 158
350 349 349 348 346 348 346 347 348 349 351 354 354 357 5 5 3 8 13 21 24 27 28 30 30 30 33 34 35 38 40 41 42 52 61 72 85 102 110 115 131 154 161
342 344 344 343 342 342 345 348 351 353 355 357 358 358 359 359 2 6 9 12 15 17 17 19 20 20 21 21 22 22 22 22 26 32 34 38 46 55 74 91 110 132 145
342 340 339 340 339 343 346 348 351 351 353 357 359 358 358 358 2 5 6 6 7 7 6 6 5 6 8 10 11 11 12 12 12 9 5 7 5 1 357 3 336 290 246
332 333 336 339 341 341 343 344 346 348 350 353 355 356 356 357 360 1 2 2 1 0 359 359 360 0 0 360 358 356 355 355 353 355 356 353 348 345 339 330 320 312 297
328 329 331 334 336 339 339 341 343 345 347 348 350 351 352 354 354 354 355 354 353 352 351 350 351 352 354 354 354 353 351 349 348 343 339 336 334 333 331 329 323 315 305
326 328 329 332 334 335 336 339 341 341 342 343 345 346 346 347 347 347 346 346 346 345 344 343 343 343 343 344 345 345 344 342 341 338 335 334 332 328 323 318 312 307 304
323 325 325 327 329 332 334 335 336 337 338 339 340 340 341 340 340 340 340 339 339 338 338 337 336 335 335 335 334 333 331 330 328 324 324 328 327 322 321 318 313 308 304
316 318 320 322 325 327 329 331 332 334 336 336 337 337 337 336 336 336 336 336 335 335 334 333 332 330 329 328 327 325 323 322 319 318 318 319 317 316 315 313 313 312 310